JLY1207 SBMG-SBCG

Flight info

Callsign JLY1207
Flight time N/A
Altitude 34000
Route SINIL UZ63 FIGOS
Aircraft B738/M-SDFGIKRWY/LB1

Departure

Time 2026-05-04 23:47
Airport Regional de Maringá - Sílvio Name Júnior Airport (SBMG)

Arrival

Time N/A
Airport Campo Grande Airport (SBCG)
Time Latitude Longitude Altitude Speed Heading
2026-05-04 23:18 -23.47888 -52.01136 1782 ft 0 kts 168°
2026-05-04 23:38 -23.47883 -52.01138 1782 ft 2 kts 168°
2026-05-04 23:38 -23.47868 -52.01141 1782 ft 2 kts 168°
2026-05-04 23:39 -23.47853 -52.01140 1782 ft 2 kts 207°
2026-05-04 23:39 -23.47841 -52.01129 1782 ft 2 kts 237°
2026-05-04 23:39 -23.47837 -52.01120 1782 ft 0 kts 256°
2026-05-04 23:39 -23.47836 -52.01113 1782 ft 0 kts 258°
2026-05-04 23:41 -23.47837 -52.01119 1782 ft 3 kts 258°
2026-05-04 23:42 -23.47846 -52.01165 1782 ft 9 kts 258°
2026-05-04 23:42 -23.47864 -52.01251 1782 ft 13 kts 257°
2026-05-04 23:42 -23.47850 -52.01339 1782 ft 13 kts 315°
2026-05-04 23:42 -23.47791 -52.01425 1782 ft 14 kts 303°
2026-05-04 23:43 -23.47758 -52.01532 1782 ft 16 kts 258°
2026-05-04 23:43 -23.47782 -52.01653 1782 ft 16 kts 258°
2026-05-04 23:43 -23.47807 -52.01776 1782 ft 16 kts 258°
2026-05-04 23:43 -23.47830 -52.01899 1782 ft 16 kts 258°
2026-05-04 23:44 -23.47855 -52.02021 1782 ft 16 kts 258°
2026-05-04 23:44 -23.47878 -52.02142 1781 ft 16 kts 258°
2026-05-04 23:44 -23.47902 -52.02265 1781 ft 16 kts 258°
2026-05-04 23:44 -23.47927 -52.02385 1781 ft 16 kts 257°
2026-05-04 23:45 -23.47951 -52.02506 1781 ft 15 kts 258°
2026-05-04 23:45 -23.47957 -52.02624 1781 ft 15 kts 278°
2026-05-04 23:45 -23.47934 -52.02727 1781 ft 11 kts 290°
2026-05-04 23:45 -23.47899 -52.02799 1781 ft 10 kts 326°
2026-05-04 23:46 -23.47842 -52.02776 1781 ft 9 kts 64°
2026-05-04 23:46 -23.47812 -52.02645 1781 ft 41 kts 77°
2026-05-04 23:46 -23.47700 -52.02083 1782 ft 108 kts 78°
2026-05-04 23:46 -23.47501 -52.01081 1816 ft 157 kts 78°
2026-05-04 23:47 -23.47283 -51.99925 2401 ft 159 kts 77°
2026-05-04 23:47 -23.47061 -51.98750 3013 ft 163 kts 76°
2026-05-04 23:47 -23.46820 -51.97533 3613 ft 166 kts 74°
2026-05-04 23:47 -23.46563 -51.96268 4012 ft 178 kts 74°
2026-05-04 23:48 -23.46294 -51.94919 4412 ft 189 kts 72°
2026-05-04 23:48 -23.45643 -51.93637 4714 ft 202 kts 37°
2026-05-04 23:48 -23.44338 -51.93075 5155 ft 211 kts
2026-05-04 23:48 -23.42861 -51.93357 5656 ft 222 kts 338°
2026-05-04 23:49 -23.41614 -51.94385 6211 ft 235 kts 311°
2026-05-04 23:49 -23.40741 -51.95883 6951 ft 238 kts 304°
2026-05-04 23:49 -23.39674 -51.97218 7616 ft 236 kts 331°
2026-05-04 23:49 -23.38097 -51.97746 8249 ft 240 kts 352°
2026-05-04 23:50 -23.36436 -51.98181 8648 ft 257 kts 338°
2026-05-04 23:50 -23.34802 -51.99116 9126 ft 272 kts 330°
2026-05-04 23:50 -23.33711 -51.99849 9514 ft 279 kts 329°
2026-05-04 23:50 -23.31490 -52.01349 10431 ft 287 kts 329°
2026-05-04 23:51 -23.29717 -52.02503 10875 ft 304 kts 329°
2026-05-04 23:51 -23.27856 -52.03687 11281 ft 320 kts 329°
2026-05-04 23:51 -23.25887 -52.04927 11743 ft 334 kts 329°
2026-05-04 23:51 -23.23851 -52.06206 12392 ft 340 kts 329°
2026-05-04 23:52 -23.21802 -52.07492 13072 ft 346 kts 328°
2026-05-04 23:52 -23.19714 -52.08805 13761 ft 352 kts 328°
2026-05-04 23:52 -23.17551 -52.10166 14462 ft 357 kts 328°
2026-05-04 23:52 -23.15403 -52.11518 15145 ft 363 kts 328°
2026-05-04 23:53 -23.13196 -52.12908 15835 ft 368 kts 328°
2026-05-04 23:53 -23.10963 -52.14313 16511 ft 374 kts 328°
2026-05-04 23:53 -23.08733 -52.15715 17161 ft 379 kts 328°
2026-05-04 23:53 -23.06438 -52.17158 17807 ft 384 kts 328°
2026-05-04 23:54 -23.04124 -52.18612 18517 ft 386 kts 327°
2026-05-04 23:54 -23.01752 -52.20100 19174 ft 391 kts 327°
2026-05-04 23:54 -22.99410 -52.21569 19806 ft 395 kts 327°
2026-05-04 23:54 -22.97014 -52.23072 20483 ft 398 kts 327°
2026-05-04 23:55 -22.94607 -52.24580 21137 ft 401 kts 326°
2026-05-04 23:55 -22.92177 -52.26102 21747 ft 405 kts 326°
2026-05-04 23:55 -22.87280 -52.29169 22986 ft 410 kts 326°
2026-05-04 23:56 -22.84779 -52.30735 23613 ft 413 kts 325°
2026-05-04 23:56 -22.82296 -52.32289 24212 ft 415 kts 325°
2026-05-04 23:56 -22.79779 -52.33865 24742 ft 419 kts 325°
2026-05-04 23:56 -22.77247 -52.35448 25357 ft 420 kts 325°
2026-05-04 23:57 -22.74711 -52.37034 25907 ft 423 kts 325°
2026-05-04 23:57 -22.72160 -52.38629 26388 ft 427 kts 324°
2026-05-04 23:57 -22.69574 -52.40244 27011 ft 427 kts 324°
2026-05-04 23:57 -22.67002 -52.41851 27379 ft 433 kts 324°
2026-05-04 23:58 -22.64359 -52.43501 27914 ft 434 kts 324°
2026-05-04 23:58 -22.61757 -52.45123 28609 ft 432 kts 324°
2026-05-04 23:58 -22.59186 -52.46721 29415 ft 425 kts 324°
2026-05-04 23:58 -22.56632 -52.48307 30144 ft 421 kts 323°
2026-05-04 23:59 -22.54090 -52.49888 30727 ft 420 kts 323°
2026-05-04 23:59 -22.51596 -52.51442 31227 ft 420 kts 323°
2026-05-04 23:59 -22.49052 -52.53028 31657 ft 422 kts 323°
2026-05-04 23:59 -22.46494 -52.54623 32080 ft 423 kts 323°
2026-05-05 00:00 -22.43936 -52.56216 32502 ft 424 kts 323°
2026-05-05 00:00 -22.43075 -52.56752 32680 ft 424 kts 323°
2026-05-05 00:00 -22.38859 -52.59372 33480 ft 422 kts 323°
2026-05-05 00:00 -22.36303 -52.60960 33909 ft 422 kts 323°
2026-05-05 00:01 -22.33758 -52.62542 34054 ft 426 kts 322°
2026-05-05 00:01 -22.28596 -52.65748 34052 ft 424 kts 323°
2026-05-05 00:02 -22.23527 -52.68887 34037 ft 422 kts 323°
2026-05-05 00:02 -22.18434 -52.72042 34039 ft 422 kts 323°
2026-05-05 00:03 -22.13310 -52.75215 34044 ft 423 kts 323°
2026-05-05 00:03 -22.08224 -52.78359 34054 ft 422 kts 323°
2026-05-05 00:04 -22.03132 -52.81505 34063 ft 423 kts 323°
2026-05-05 00:04 -21.98023 -52.84666 34069 ft 423 kts 322°
2026-05-05 00:05 -21.93355 -52.88367 34059 ft 410 kts 310°
2026-05-05 00:05 -21.89443 -52.92793 34064 ft 408 kts 304°
2026-05-05 00:06 -21.85753 -52.97433 34059 ft 404 kts 303°
2026-05-05 00:06 -21.82137 -53.02020 34068 ft 406 kts 303°
2026-05-05 00:07 -21.78473 -53.06618 34064 ft 403 kts 303°
2026-05-05 00:07 -21.74799 -53.11201 34060 ft 406 kts 304°
2026-05-05 00:08 -21.71110 -53.15778 34063 ft 403 kts 304°
2026-05-05 00:08 -21.67426 -53.20345 34065 ft 407 kts 304°
2026-05-05 00:09 -21.63738 -53.24913 34062 ft 406 kts 303°
2026-05-05 00:09 -21.60027 -53.29501 34064 ft 405 kts 304°
2026-05-05 00:09 -21.58188 -53.31776 33961 ft 405 kts 304°
2026-05-05 00:10 -21.56350 -53.34044 33537 ft 401 kts 304°
2026-05-05 00:10 -21.54527 -53.36293 33045 ft 397 kts 304°
2026-05-05 00:10 -21.52737 -53.38496 32702 ft 391 kts 304°
2026-05-05 00:10 -21.50936 -53.40719 32269 ft 395 kts 304°
2026-05-05 00:11 -21.49130 -53.42953 31817 ft 398 kts 305°
2026-05-05 00:11 -21.47334 -53.45171 31348 ft 394 kts 305°
2026-05-05 00:11 -21.45542 -53.47390 30901 ft 389 kts 304°
2026-05-05 00:11 -21.43893 -53.49616 30463 ft 382 kts 301°
2026-05-05 00:12 -21.42351 -53.51902 30015 ft 377 kts 299°
2026-05-05 00:12 -21.41358 -53.53435 29718 ft 374 kts 299°